Miscellaneous Local Product
Issued by NWS Hastings, NE

Home | Current Version | Previous Version | Graphics & Text | Print | Product List | Glossary On
Versions: 1 2 3 4 5 6 7 8 9 10 11 12 13 14 15 16 17 18 19 20 21 22 23 24 25 26 27 28 29 30 31 32 33 34 35 36 37 38 39 40 41 42 43 44 45 46 47 48 49 50
000
AXUS43 KGID 282302
MISGRI

GID CWA HOURLY WEATHER ROUNDUP
NATIONAL WEATHER SERVICE HASTINGS NE
600 PM CDT FRI AUG 28 2015

NOTE: "FAIR" INDICATES FEW OR NO CLOUDS BELOW 12,000 FEET WITH NO
SIGNIFICANT WEATHER AND/OR OBSTRUCTIONS TO VISIBILITY.

...SOUTH CENTRAL NEBRASKA...

CITY           SKY/WX    TMP DP  RH WIND       PRES   REMARKS
GRAND ISLAND   CLOUDY    74  61  63 N16       29.97R
HASTINGS       PTSUNNY   75  62  64 N16       29.96R
KEARNEY        MOSUNNY   79  59  50 N17G24    29.97S
ORD            CLOUDY    75  61  61 N8        29.98R
YORK           CLOUDY    72  64  78 N7        29.94R
AURORA         CLOUDY    73  64  75 N14       29.96R
LEXINGTON      SUNNY     79  63  56 N10       29.99S
HOLDREGE       MOSUNNY   77  62  59 N10G16    29.98S
HEBRON         CLOUDY    76  62  62 N14       29.93R

...NEBRASKA PANHANDLE...

CITY           SKY/WX    TMP DP  RH WIND       PRES   REMARKS
CHADRON        SUNNY     89  45  21 CALM      30.04S HAZE
ALLIANCE       SUNNY     86  48  26 N8        30.09S
SCOTTSBLUFF    SUNNY     88  41  19 N7        30.10R
SIDNEY         SUNNY     86  44  23 N13G23    30.13R

...WESTERN AND NORTH CENTRAL NEBRASKA...

CITY           SKY/WX    TMP DP  RH WIND       PRES   REMARKS
VALENTINE      SUNNY     81  60  48 N5        30.01F
AINSWORTH      SUNNY     76  64  67 NE5       30.03S
ONEILL         MOSUNNY   75  64  68 N6        30.00R
BROKEN BOW     MOSUNNY   79  61  53 N9        30.00S
IMPERIAL       MOSUNNY   88  53  30 NE9G22    30.04R
NORTH PLATTE   SUNNY     81  62  52 N12       30.01S
MCCOOK         SUNNY     85  59  41 N15       29.99S

...EASTERN NEBRASKA...

CITY           SKY/WX    TMP DP  RH WIND       PRES   REMARKS
NORFOLK        MOSUNNY   74  62  66 N21G30    29.93R
SO SIOUX CITY  CLOUDY    66  60  81 N16       29.91R
TEKAMAH        LGT RAIN  68  66  93 N12       29.88R FOG
COLUMBUS       CLOUDY   N/A N/A N/A N8        29.92S
ALBION         MOSUNNY   74  62  67 N16       29.96S
OMAHA EPPLEY   PTSUNNY   75  66  73 NW10      29.86R
OFFUTT AFB     PTSUNNY   74  65  72 W13       29.85S
MILLARD        CLOUDY    73  65  76 NW13      29.87R
LINCOLN        CLOUDY    74  64  71 NW13      29.91R
NEBRASKA CITY  CLOUDY    73  66  77 NW9       29.87S
BEATRICE       CLOUDY    75  66  74 NW12      29.90R
FALLS CITY     CLOUDY    79  73  82 CALM      29.84S

...NORTHERN KANSAS...

CITY           SKY/WX    TMP DP  RH WIND       PRES   REMARKS
GOODLAND       SUNNY     90  41  18 N16G23    30.04S
HILL CITY      SUNNY     89  60  37 N13       29.96R
NORTON         CLEAR     81  55  41 N15G22    29.96S
PHILLIPSBURG   MOSUNNY   86  63  45 NW15G23   29.95R
SMITH CENTER   MOSUNNY   81  63  54 N16       29.94R
HAYS           SUNNY     90  59  35 N15G22    29.93R
RUSSELL        SUNNY     88  62  41 N17       29.90S
CONCORDIA      CLOUDY    77  68  73 N12       29.90S
SALINA         MOSUNNY   86  68  54 NW14      29.88S
TOPEKA         LGT RAIN  78  69  73 S13       29.88S



USA.gov is the U.S. government's official web portal to all federal, state and local government web resources and services.